Location: Banff
(51.1667°N, 115.5667°W)
Time: 09:59:07
(UTC+00:00)

Envisat - Pass Details

Date: 30 November 2022
Orbit: 763 x 765 km, 98.2° (Epoch: 28 January)

Event Time Altitude Azimuth Distance (km) Brightness Sun altitude
Rises 12:50:55 0° 10° (N) 3,247 6.3 -22.9°
Reaches altitude 10° 12:53:18 10° 4° (N) 2,316 5.4 -22.5°
Enters shadow 12:57:08 39° 324° (NW) 1,136 3.5 -21.9°
